Date,TemperatureHighF,TemperatureAvgF,TemperatureLowF,DewpointHighF,DewpointAvgF,DewpointLowF,HumidityHigh,HumidityAvg,HumidityLow,PressureMaxIn,PressureMinIn,WindSpeedMaxMPH,WindSpeedAvgMPH,GustSpeedMaxMPH,PrecipitationSumIn
2013-1-1,22.1,15.2,1.9,19.0,11.0,-1.0,93,83,68,30.34,30.19,5,1,9,0.00
2013-1-2,24.0,13.9,1.8,17.0,9.1,-1.0,90,81,68,30.36,30.26,15,7,19,0.00
2013-1-3,30.8,22.6,11.2,27.0,19.3,9.0,92,87,81,30.43,30.25,14,8,22,0.00
2013-1-4,30.6,20.2,7.8,26.0,16.5,6.0,91,85,81,30.43,30.36,21,10,25,0.00
2013-1-5,34.6,28.8,20.6,32.0,26.1,18.0,96,89,83,30.37,30.09,17,10,22,0.00
2013-1-6,34.9,26.0,13.9,32.0,22.8,12.0,94,88,82,30.44,30.07,19,6,24,0.00
2013-1-7,37.7,26.8,14.0,31.0,23.1,12.0,94,86,76,30.47,30.23,18,10,24,0.00
2013-1-8,43.7,34.1,27.9,37.0,29.8,25.0,88,84,75,30.27,30.17,22,10,23,0.00
2013-1-9,49.0,38.1,29.6,39.0,32.9,26.0,91,82,58,30.58,30.16,15,6,19,0.00
2013-1-10,48.9,36.3,27.1,49.0,33.5,25.0,99,89,74,30.57,29.90,21,7,23,0.37
2013-1-11,55.9,50.9,46.3,53.0,49.2,46.0,99,94,85,29.90,29.78,20,12,29,0.16
2013-1-12,51.7,43.1,28.8,49.0,40.1,28.0,95,89,78,30.03,29.82,16,5,24,0.16
2013-1-13,28.8,21.8,13.0,28.0,19.6,11.0,96,91,85,30.39,29.95,9,3,16,0.00
2013-1-14,24.0,16.4,11.9,18.0,13.3,10.0,94,87,76,30.57,30.40,6,1,9,0.00
2013-1-15,28.1,19.1,9.9,23.0,16.5,8.0,95,89,81,30.55,30.23,11,2,12,0.00
2013-1-16,35.4,27.6,16.5,30.0,23.3,14.0,95,84,72,30.23,30.01,21,9,26,0.00
2013-1-17,34.0,28.8,19.7,30.0,23.8,17.0,95,82,61,30.52,30.17,10,2,13,0.00
2013-1-18,41.9,31.3,18.7,32.0,25.6,16.0,92,80,66,30.55,30.11,26,13,33,0.00
2013-1-19,50.9,39.7,34.0,40.0,33.4,27.0,85,78,64,30.11,29.89,26,14,29,0.00
2013-1-20,31.8,20.1,14.7,25.0,12.2,8.0,84,72,60,30.40,30.11,10,4,20,0.00
2013-1-21,16.9,10.4,3.8,13.0,2.3,-3.0,84,70,47,30.45,30.30,16,7,27,0.00
2013-1-22,15.8,8.6,0.8,2.0,-1.2,-3.0,84,66,47,30.55,30.44,11,4,18,0.00
2013-1-23,31.6,18.7,6.7,17.0,8.7,1.0,80,66,52,30.48,30.21,14,5,18,0.00
2013-1-24,23.1,15.6,5.4,10.0,4.9,-1.0,81,64,48,30.73,30.44,11,4,14,0.00
2013-1-25,34.2,24.2,18.1,23.0,16.4,7.0,89,73,53,30.45,30.11,20,8,24,0.00
2013-1-26,30.8,20.8,9.0,18.0,12.0,6.0,89,70,46,30.50,30.29,6,2,7,0.00
2013-1-27,42.9,30.1,22.5,42.0,26.7,18.0,99,87,76,30.46,30.00,25,11,33,0.04
2013-1-28,56.2,50.0,43.1,56.0,49.7,42.0,100,98,97,30.02,29.89,21,10,23,0.04
2013-1-29,61.8,57.8,50.0,60.0,56.8,50.0,100,96,92,29.88,29.44,26,14,34,1.12
2013-1-30,50.8,36.7,21.0,50.0,35.1,17.0,100,94,85,29.80,29.31,28,12,33,0.18
2013-1-31,21.8,15.7,4.8,19.0,10.9,-1.0,91,81,73,30.35,29.81,22,12,33,0.00
2013-2-1,20.4,11.1,2.2,17.0,5.2,-2.0,89,77,69,30.54,30.29,17,9,23,0.00
2013-2-2,27.9,20.4,9.8,25.0,17.6,7.0,93,89,82,30.30,30.11,16,6,19,0.00
2013-2-3,27.4,21.5,13.8,21.0,17.5,11.0,96,85,66,30.20,30.07,11,5,17,0.00
2013-2-4,37.9,28.7,20.2,31.0,24.4,19.0,93,84,73,30.12,29.89,20,6,27,0.00
2013-2-5,38.4,28.9,18.6,33.0,26.5,17.0,95,90,82,30.17,29.90,19,5,24,0.00
2013-2-6,42.0,34.4,28.0,35.0,30.7,27.0,95,86,73,30.31,30.17,16,5,19,0.00
2013-2-7,40.7,35.3,32.7,40.0,33.7,30.0,98,93,86,30.16,29.91,16,5,22,0.23
2013-2-8,32.7,28.1,24.0,32.0,25.7,22.0,96,90,86,30.47,30.05,10,3,23,0.00
2013-2-9,35.3,31.3,27.7,32.0,27.8,24.0,90,86,83,30.47,30.07,12,7,23,0.00
2013-2-10,49.0,41.3,34.5,48.0,39.2,30.0,98,92,77,30.07,29.56,31,15,38,0.48
2013-2-11,42.9,34.2,27.7,36.0,28.3,25.0,89,79,70,30.11,29.61,31,15,40,0.00
2013-2-12,34.7,28.8,23.2,29.0,26.2,22.0,96,90,79,30.15,29.95,10,4,12,0.00
2013-2-13,45.5,34.2,26.2,38.0,30.5,25.0,96,87,70,29.95,29.76,15,6,18,0.00
2013-2-14,40.6,36.0,32.0,35.0,32.3,29.0,92,86,77,30.01,29.73,19,9,28,0.00
2013-2-15,34.1,29.0,20.9,31.0,22.8,15.0,94,78,53,30.23,30.01,7,3,12,0.00
2013-2-16,28.7,19.6,13.2,17.0,12.7,9.0,85,75,59,30.23,30.15,9,3,17,0.00
2013-2-17,35.1,23.3,9.8,24.0,15.6,6.0,87,73,58,30.26,30.00,15,6,24,0.00
2013-2-18,53.3,40.1,26.3,47.0,34.9,23.0,95,82,69,29.99,29.48,34,18,36,0.25
2013-2-19,25.8,19.8,14.6,23.0,14.1,9.0,87,78,70,30.26,29.73,27,15,39,0.00
2013-2-20,25.2,15.8,6.1,17.0,10.5,2.0,91,80,64,30.42,30.26,9,2,12,0.00
2013-2-21,27.8,21.9,11.4,27.0,19.4,10.0,96,90,83,30.39,29.89,28,11,33,0.00
2013-2-22,32.7,29.8,25.7,32.0,28.0,23.0,98,93,84,30.00,29.82,23,11,25,0.04
2013-2-23,27.1,23.5,18.1,23.0,20.1,16.0,93,87,79,30.03,29.98,13,7,16,0.00
2013-2-24,38.4,26.8,14.1,30.0,22.6,12.0,95,85,68,30.17,30.02,4,2,8,0.00
2013-2-25,42.5,33.8,25.8,36.0,30.2,24.0,94,87,75,30.16,29.85,16,8,21,0.00
2013-2-26,33.4,32.3,31.6,32.0,31.0,29.0,99,95,85,29.83,29.43,23,8,33,0.18
2013-2-27,32.2,31.2,30.1,32.0,30.5,30.0,99,97,93,29.77,29.54,12,4,15,0.07
2013-2-28,35.8,32.3,30.0,32.0,30.7,29.0,98,93,86,30.07,29.77,8,3,11,0.23
2013-3-1,32.6,27.8,24.0,29.0,25.2,22.0,97,90,82,30.20,30.05,5,1,8,0.03
2013-3-2,31.7,23.7,11.1,24.0,19.3,9.0,90,83,70,30.23,30.17,6,2,10,0.01
2013-3-3,34.4,20.4,8.5,19.0,12.9,6.0,91,75,43,30.20,30.12,4,1,6,0.00
2013-3-4,33.6,29.5,21.3,30.0,25.6,17.0,91,85,79,30.14,29.92,23,10,23,0.00
2013-3-5,34.3,31.0,26.5,33.0,29.9,26.0,98,96,90,30.00,29.79,13,5,15,0.06
2013-3-6,31.6,27.4,25.1,28.0,25.4,24.0,97,92,84,30.35,30.00,10,4,17,0.02
2013-3-7,40.2,29.4,22.4,28.0,24.8,21.0,94,83,59,30.44,30.35,5,1,7,0.06
2013-3-8,39.9,31.3,20.5,35.0,27.8,19.0,94,87,76,30.48,30.29,14,5,16,0.00
2013-3-9,45.1,39.4,33.4,41.0,35.3,30.0,92,85,80,30.29,29.81,18,10,21,0.05
2013-3-10,55.4,48.6,42.7,51.0,45.5,40.0,98,89,80,29.84,29.55,18,10,25,0.60
2013-3-11,48.2,37.1,31.2,47.0,35.5,29.0,98,94,89,29.89,29.60,22,13,27,0.02
2013-3-12,38.7,31.3,26.3,33.0,27.4,22.0,95,85,75,30.11,29.89,19,10,26,0.00
2013-3-13,35.0,27.8,23.4,26.0,22.4,20.0,90,80,64,30.38,30.11,14,4,17,0.00
2013-3-14,38.9,30.9,22.9,32.0,26.5,21.0,92,84,66,30.38,30.13,14,5,17,0.00
2013-3-15,52.7,40.5,31.3,47.0,37.2,30.0,94,88,74,30.10,29.66,13,6,16,0.00
2013-3-16,42.8,35.0,29.9,41.0,32.7,27.0,98,91,80,30.11,29.64,8,2,13,0.00
2013-3-17,36.5,32.1,28.9,31.0,27.8,25.0,90,84,78,30.17,29.92,19,10,22,0.00
2013-3-18,38.1,32.0,25.0,36.0,29.8,18.0,98,91,75,29.92,29.67,23,10,29,0.01
2013-3-19,39.3,28.3,19.6,23.0,18.4,13.0,80,68,44,30.16,29.91,24,11,29,0.00
2013-3-20,29.0,23.7,16.7,22.0,13.9,9.0,85,67,49,30.18,30.08,15,5,26,0.00
2013-3-21,35.3,22.9,11.1,20.0,13.2,8.0,88,69,42,30.12,30.03,8,2,12,0.00
2013-3-22,43.6,30.4,16.6,25.0,19.1,15.0,95,67,36,30.10,30.01,7,2,12,0.00
2013-3-23,47.1,35.4,27.6,28.0,25.4,23.0,86,69,46,30.10,29.96,15,5,18,0.00
2013-3-24,31.0,29.6,27.6,30.0,28.2,25.0,98,94,80,29.96,29.60,15,7,20,0.00
2013-3-25,36.0,30.5,25.9,31.0,28.0,25.0,98,90,79,30.12,29.70,11,4,15,0.23
2013-3-26,39.6,33.6,29.6,30.0,28.1,26.0,90,81,60,30.30,30.12,7,3,12,0.00
2013-3-27,42.4,34.6,28.2,31.0,27.0,24.0,89,75,52,30.37,30.30,10,4,13,0.00
2013-3-28,48.4,36.0,23.7,36.0,28.8,21.0,91,76,52,30.39,30.30,7,2,9,0.00
2013-3-29,54.7,42.9,33.2,40.0,33.6,29.0,92,72,44,30.32,30.22,5,2,8,0.00
2013-3-30,54.3,45.1,31.8,44.0,38.4,30.0,91,78,60,30.23,29.89,18,6,24,0.00
2013-3-31,59.5,50.0,38.8,47.0,41.2,32.0,97,74,47,29.91,29.76,19,8,30,0.00
2013-4-1,43.9,35.6,26.7,30.0,22.9,18.0,86,62,38,30.21,29.91,9,3,15,0.00
2013-4-2,46.9,32.9,19.9,23.0,18.5,13.0,89,60,28,30.34,30.22,11,2,17,0.00
2013-4-3,48.4,34.9,20.2,24.0,19.9,17.0,88,59,31,30.46,30.32,18,4,18,0.00
2013-4-4,58.6,42.5,25.5,26.0,23.2,19.0,85,51,25,30.31,30.01,9,3,18,0.00
2013-4-5,57.4,44.5,32.3,34.0,27.0,21.0,89,55,25,30.18,30.02,16,4,17,0.00
2013-4-6,72.1,54.7,36.4,49.0,34.8,24.0,80,50,27,30.10,29.67,32,16,42,0.05
2013-4-7,70.6,57.1,40.2,48.0,43.0,39.0,95,63,35,29.93,29.70,16,4,20,0.00
2013-4-8,73.4,63.3,52.9,58.0,54.7,41.0,92,75,53,29.88,29.67,25,10,31,0.05
2013-4-9,78.9,67.7,54.4,61.0,58.0,52.0,94,73,51,29.88,29.77,30,11,36,0.00
2013-4-10,59.2,47.2,41.2,51.0,45.6,40.0,98,94,75,29.87,29.68,19,6,24,1.42
2013-4-11,50.1,45.5,37.9,50.0,43.9,35.0,99,94,85,29.80,29.58,20,10,25,0.25
2013-4-12,41.1,38.5,36.1,38.0,35.2,32.0,91,88,84,29.92,29.63,26,13,28,0.00
2013-4-13,49.6,42.9,35.2,40.0,35.2,29.0,89,75,59,30.00,29.91,16,8,25,0.00
2013-4-14,72.2,56.4,41.5,55.0,46.6,38.0,93,72,46,29.98,29.64,34,12,36,0.00
2013-4-15,62.4,54.3,45.1,59.0,51.5,44.0,98,90,67,29.97,29.70,25,9,34,0.43
2013-4-16,53.4,46.3,41.0,47.0,42.9,40.0,98,88,69,30.20,29.90,17,2,20,1.33
2013-4-17,63.3,49.2,42.7,62.0,47.0,39.0,98,92,83,30.21,29.75,20,9,21,0.03
2013-4-18,66.1,56.5,40.0,64.0,55.1,35.0,100,95,83,29.75,29.45,27,13,34,1.48
2013-4-19,39.3,37.0,33.4,35.0,32.5,29.0,92,84,77,30.00,29.59,25,15,33,0.00
2013-4-20,47.9,38.0,30.3,35.0,30.1,26.0,91,75,47,30.40,30.01,8,2,10,0.00
2013-4-21,53.9,43.1,32.7,42.0,34.9,29.0,89,74,55,30.49,30.31,17,9,22,0.00
2013-4-22,65.7,53.5,39.4,47.0,40.4,34.0,83,63,39,30.30,30.02,12,7,19,0.00
2013-4-23,57.9,49.7,37.4,54.0,45.9,36.0,97,87,73,30.02,29.85,14,6,19,0.56
2013-4-24,49.1,40.8,34.5,38.0,35.3,33.0,97,82,58,30.19,29.93,14,4,19,0.06
2013-4-25,54.1,45.0,37.1,38.0,33.4,30.0,86,66,44,30.32,30.13,18,7,26,0.00
2013-4-26,64.6,51.1,37.9,49.0,41.6,34.0,91,71,52,30.36,30.26,21,9,24,0.00
2013-4-27,64.3,52.6,43.9,52.0,47.0,42.0,98,83,50,30.29,29.96,14,5,21,0.28
2013-4-28,63.1,55.2,51.7,57.0,53.9,51.0,99,95,81,29.95,29.83,7,2,8,0.14
2013-4-29,71.7,59.7,46.9,61.0,54.6,46.0,97,84,63,29.92,29.75,18,9,25,0.01
2013-4-30,83.4,69.6,57.6,64.0,58.7,55.0,91,71,44,29.93,29.77,19,13,25,0.00
2013-5-1,82.8,70.8,56.7,60.0,56.3,52.0,91,63,35,30.08,29.93,11,5,19,0.00
2013-5-2,75.1,63.2,47.2,61.0,55.5,45.0,94,77,57,30.11,30.02,11,2,12,0.38
2013-5-3,67.6,54.5,42.5,63.0,52.1,42.0,98,92,76,30.06,29.81,24,8,25,0.25
2013-5-4,63.7,58.8,53.7,58.0,55.2,53.0,96,88,71,29.99,29.84,17,7,18,0.11
2013-5-5,69.6,58.6,52.0,58.0,53.5,50.0,98,84,53,29.99,29.89,17,4,20,0.01
2013-5-6,74.2,62.0,51.8,57.0,52.1,49.0,94,72,44,29.98,29.90,11,3,17,0.00
2013-5-7,78.5,64.2,48.8,56.0,48.5,43.0,89,61,30,30.01,29.93,14,1,14,0.00
2013-5-8,79.9,66.9,50.0,56.0,50.0,45.0,90,59,30,30.00,29.92,7,1,13,0.00
2013-5-9,67.2,62.1,58.9,62.0,58.4,52.0,97,88,73,29.97,29.79,14,5,20,0.33
2013-5-10,61.6,54.7,48.3,60.0,53.0,47.0,98,93,88,29.95,29.77,15,3,18,0.00
2013-5-11,62.7,52.2,40.4,54.0,41.7,29.0,94,71,36,30.07,29.89,19,5,24,0.00
2013-5-12,58.0,46.9,35.0,35.0,31.7,27.0,84,58,31,30.16,30.07,10,3,22,0.00
2013-5-13,67.8,54.5,36.4,42.0,34.1,29.0,85,51,25,30.19,30.02,11,4,16,0.00
2013-5-14,89.9,72.1,53.2,61.0,53.1,40.0,73,53,35,30.02,29.68,21,13,27,0.00
2013-5-15,84.4,75.3,66.5,63.0,57.0,53.0,68,54,39,29.80,29.70,20,9,25,0.00
2013-5-16,83.8,72.1,61.0,61.0,55.1,50.0,79,57,32,29.90,29.79,10,3,14,0.00
2013-5-17,80.0,70.3,59.7,64.0,60.3,50.0,93,73,36,29.96,29.89,13,5,18,0.00
2013-5-18,80.5,71.2,61.4,65.0,62.1,60.0,94,74,51,30.00,29.88,13,4,18,0.00
2013-5-19,88.6,76.4,62.2,71.0,65.7,60.0,95,71,49,29.90,29.70,18,8,26,0.00
2013-5-20,88.7,77.0,65.4,69.0,62.9,57.0,91,64,35,29.80,29.67,31,14,42,0.24
2013-5-21,79.3,70.5,62.4,71.0,65.0,60.0,93,83,66,29.75,29.63,23,13,25,0.22
2013-5-22,73.4,67.0,60.5,66.0,61.2,56.0,96,83,58,29.75,29.59,17,8,21,0.01
2013-5-23,60.0,56.0,43.1,57.0,52.4,39.0,96,87,78,30.24,29.76,10,4,15,0.02
2013-5-24,66.5,52.5,35.6,46.0,38.8,34.0,94,64,32,30.40,30.24,8,2,16,0.00
2013-5-25,57.3,50.9,45.3,51.0,41.2,32.0,95,71,39,30.38,30.22,11,4,14,0.48
2013-5-26,63.1,55.8,50.1,59.0,52.5,47.0,95,88,80,30.25,30.04,14,6,20,0.17
2013-5-27,71.4,62.5,56.8,67.0,60.7,56.0,97,94,82,30.11,29.78,15,7,21,0.88
2013-5-28,77.1,69.6,63.6,72.0,66.3,62.0,94,89,82,29.85,29.72,31,11,31,0.16
2013-5-29,83.5,73.9,62.8,72.0,66.7,61.0,97,79,61,29.92,29.81,21,10,32,0.29
2013-5-30,83.5,74.4,63.2,73.0,67.5,62.0,97,80,63,29.90,29.76,25,12,32,0.19
2013-5-31,75.4,69.0,63.0,72.0,66.0,61.0,96,90,78,29.85,29.67,17,9,41,0.78
2013-6-1,73.3,66.7,61.2,68.0,63.3,59.0,95,89,80,29.77,29.61,22,11,33,0.25
2013-6-2,64.0,59.2,52.2,60.0,56.7,50.0,96,91,83,30.02,29.76,11,3,13,0.01
2013-6-3,66.0,57.8,48.8,52.0,49.8,47.0,95,76,55,30.11,30.01,8,3,12,0.00
2013-6-4,73.0,62.3,48.5,55.0,51.6,46.0,92,70,48,30.12,30.02,13,4,16,0.00
2013-6-5,78.8,67.6,54.1,61.0,56.1,52.0,95,69,43,30.02,29.84,7,2,11,0.00
2013-6-6,75.5,65.6,57.4,61.0,56.4,51.0,91,73,55,29.86,29.79,10,1,14,0.00
2013-6-7,75.5,63.6,52.1,60.0,53.1,49.0,89,70,50,29.90,29.83,6,1,11,0.00
2013-6-8,77.8,66.3,48.9,57.0,50.9,45.0,91,61,40,29.95,29.89,11,2,12,0.00
2013-6-9,83.0,71.9,62.4,64.0,58.1,54.0,89,65,39,29.95,29.75,18,8,25,0.00
2013-6-10,80.9,69.4,59.0,63.0,60.6,58.0,97,76,49,29.86,29.71,13,3,15,0.00
2013-6-11,86.5,75.1,59.4,71.0,63.7,57.0,93,70,45,29.91,29.77,17,5,19,0.00
2013-6-12,96.3,83.5,70.6,72.0,69.8,65.0,90,66,36,29.84,29.54,29,11,34,0.00
2013-6-13,83.1,73.6,62.2,72.0,60.6,53.0,94,67,39,29.97,29.60,10,2,15,0.00
2013-6-14,80.8,68.5,52.5,57.0,53.4,49.0,93,62,35,30.09,29.94,9,2,11,0.00
2013-6-15,82.0,72.5,67.0,69.0,61.6,55.0,93,69,49,30.03,29.85,30,9,39,0.00
2013-6-16,82.4,72.6,65.6,70.0,66.8,64.0,94,82,63,29.95,29.85,16,7,19,0.00
2013-6-17,87.7,76.7,64.1,70.0,61.0,50.0,98,64,28,29.92,29.83,7,2,13,0.00
2013-6-18,82.7,71.0,61.3,65.0,60.3,52.0,97,71,48,29.99,29.84,11,4,14,0.00
2013-6-19,85.9,71.1,53.0,63.0,56.5,50.0,89,63,34,30.07,29.99,10,2,10,0.00
2013-6-20,90.3,79.2,66.1,67.0,61.1,57.0,83,57,34,30.10,30.01,11,5,15,0.00
2013-6-21,91.6,76.9,68.3,70.0,66.8,63.0,94,72,41,30.09,29.89,20,8,25,0.21
2013-6-22,79.0,72.2,65.9,73.0,69.0,65.0,95,89,81,30.05,29.95,16,7,20,0.00
2013-6-23,82.5,73.9,65.7,74.0,68.9,64.0,95,85,66,30.02,29.90,17,8,24,0.00
2013-6-24,86.6,73.2,65.8,76.0,68.7,65.0,97,86,66,30.06,29.85,12,5,26,1.10
2013-6-25,85.0,75.0,68.8,78.0,71.0,66.0,95,87,73,29.92,29.77,17,9,27,0.09
2013-6-26,83.7,75.3,67.5,77.0,71.7,66.0,97,88,76,29.81,29.67,12,5,21,0.12
2013-6-27,87.0,78.1,69.8,76.0,71.8,67.0,98,82,57,29.79,29.69,14,3,21,0.00
2013-6-28,83.3,73.5,65.4,70.0,64.8,60.0,93,76,47,29.74,29.59,9,4,19,0.01
2013-6-29,74.8,66.5,60.9,68.0,63.8,59.0,96,91,80,29.71,29.57,7,1,9,0.15
2013-6-30,77.9,67.8,59.5,65.0,59.3,46.0,95,76,51,29.91,29.71,16,3,22,0.00
2013-7-1,78.1,67.9,58.4,62.0,55.8,47.0,85,67,43,29.98,29.90,10,3,16,0.00
2013-7-2,72.0,64.9,59.8,63.0,58.3,56.0,92,79,66,30.02,29.95,7,2,11,0.00
2013-7-3,76.4,64.7,58.9,62.0,59.1,55.0,96,83,52,30.05,29.98,5,1,7,0.00
2013-7-4,82.1,71.3,59.1,65.0,60.8,56.0,92,71,52,30.08,30.00,11,4,16,0.00
2013-7-5,83.2,72.8,62.0,69.0,64.5,59.0,98,77,51,30.06,29.98,9,3,12,0.00
2013-7-6,80.7,72.1,64.7,70.0,67.2,64.0,97,85,63,30.03,29.95,8,2,11,0.00
2013-7-7,88.8,77.4,66.3,73.0,68.8,64.0,91,76,55,30.00,29.92,15,5,17,0.00
2013-7-8,86.2,76.7,72.9,77.0,71.5,69.0,94,84,59,30.03,29.93,14,6,17,0.07
2013-7-9,88.8,80.2,75.0,78.0,74.8,73.0,93,84,65,29.97,29.85,10,4,15,0.00
2013-7-10,85.5,76.7,66.0,76.0,71.6,64.0,96,85,65,29.96,29.80,15,4,20,0.88
2013-7-11,79.9,68.7,57.8,67.0,61.1,56.0,99,79,50,30.05,29.96,8,1,11,0.00
2013-7-12,80.2,67.5,53.0,66.0,57.1,47.0,98,73,33,30.12,30.04,5,1,9,0.00
2013-7-13,81.0,70.2,56.6,68.0,63.0,55.0,97,80,57,30.11,30.04,8,2,11,0.00
2013-7-14,88.0,78.0,61.7,74.2,69.7,61.0,98,77,57,30.14,30.07,9,2,23,0.00
2013-7-15,87.3,78.0,68.0,77.0,72.9,67.0,97,85,66,30.21,30.14,7,2,11,0.00
2013-7-16,89.3,80.1,71.1,76.0,73.0,70.0,96,80,58,30.28,30.21,9,2,11,0.00
2013-7-17,91.3,80.0,69.5,78.0,73.4,68.0,96,81,57,30.29,30.14,5,1,7,0.00
2013-7-18,90.9,81.7,71.1,79.0,74.9,70.0,96,81,61,30.16,29.96,8,2,11,0.00
2013-7-19,91.5,82.6,74.0,78.0,74.8,72.0,93,78,58,29.96,29.76,11,6,15,0.00
2013-7-20,88.1,78.7,67.3,74.0,70.6,65.0,94,78,52,29.87,29.76,10,2,12,0.00
2013-7-21,79.3,72.0,61.4,74.0,69.1,61.0,99,90,80,29.90,29.80,7,1,10,0.02
2013-7-22,84.6,75.5,65.4,72.0,69.1,63.0,98,82,61,29.82,29.72,7,2,10,0.00
2013-7-23,82.8,72.1,62.4,73.0,66.4,57.0,97,83,59,29.90,29.70,10,2,12,0.06
2013-7-24,76.0,64.2,49.9,59.0,55.1,49.0,98,75,47,30.02,29.90,10,2,13,0.01
2013-7-25,79.2,64.9,48.2,63.0,55.9,47.0,95,75,47,30.08,30.01,4,1,7,0.01
2013-7-26,72.9,66.2,60.1,68.0,62.7,58.0,96,88,79,30.04,29.87,12,4,17,0.07
2013-7-27,70.6,60.3,48.3,60.0,53.9,47.0,97,81,54,29.94,29.87,8,2,17,0.01
2013-7-28,72.8,60.6,48.5,57.0,52.1,47.0,94,75,52,30.02,29.91,17,4,19,0.00
2013-7-29,76.8,61.8,47.2,61.0,53.7,46.0,98,78,46,30.13,30.02,5,1,7,0.00
2013-7-30,67.9,65.3,60.2,66.0,62.7,57.0,98,91,81,30.13,30.00,12,3,15,0.27
2013-7-31,75.2,69.2,62.4,71.0,67.4,62.0,99,94,82,30.01,29.93,3,1,6,0.01
2013-8-1,81.6,69.2,59.5,67.0,61.6,59.0,99,80,48,30.00,29.93,11,2,17,0.01
2013-8-2,82.1,72.4,61.5,72.0,66.5,59.0,96,82,65,29.92,29.84,14,6,19,0.09
2013-8-3,82.2,71.2,56.9,68.0,63.6,56.0,98,79,50,30.07,29.90,4,0,8,0.15
2013-8-4,80.4,66.7,52.4,64.0,58.3,52.0,99,77,46,30.14,30.06,5,0,6,0.00
2013-8-5,75.3,67.6,56.4,66.0,61.7,56.0,98,82,63,30.07,29.85,8,3,13,0.02
2013-8-6,83.4,72.8,64.8,75.0,69.1,64.0,97,88,72,29.88,29.80,8,2,11,0.00
2013-8-7,83.1,73.8,68.3,78.0,71.6,68.0,98,93,77,29.86,29.77,9,3,11,0.07
2013-8-8,82.1,71.4,63.3,71.0,66.0,60.0,99,84,67,29.94,29.87,8,2,10,0.01
2013-8-9,81.7,69.1,54.8,70.0,62.2,54.0,97,80,52,30.02,29.93,3,0,6,0.00
2013-8-10,82.6,71.3,57.2,67.0,63.1,56.0,97,78,51,30.09,30.01,5,1,9,0.00
2013-8-11,81.8,68.4,51.9,68.0,60.4,51.0,97,78,51,30.10,30.02,5,1,8,0.00
2013-8-12,81.1,71.6,59.8,73.0,66.7,58.0,97,85,68,30.04,29.85,7,2,10,0.00
2013-8-13,77.6,65.6,48.5,65.0,57.4,47.0,98,78,47,30.11,29.88,8,1,10,0.00
2013-8-14,73.4,58.8,44.0,57.0,50.7,43.0,97,77,47,30.20,30.11,5,0,8,0.00
2013-8-15,75.0,63.0,49.9,57.0,53.6,48.0,96,74,46,30.16,30.07,6,1,8,0.00
2013-8-16,79.2,66.6,56.8,60.0,56.6,53.0,95,73,43,30.14,30.09,7,1,11,0.00
2013-8-17,78.6,64.4,48.4,60.0,55.0,47.0,97,75,45,30.19,30.11,10,2,12,0.00
2013-8-18,83.1,66.3,49.7,66.0,57.9,49.0,98,78,47,30.16,30.05,6,1,9,0.00
2013-8-19,83.7,70.1,56.1,68.0,62.2,54.0,96,78,53,30.09,30.00,5,1,8,0.00
2013-8-20,84.7,72.6,59.6,70.0,65.2,59.0,98,79,56,30.09,30.00,6,1,9,0.00
2013-8-21,86.8,74.6,63.7,72.0,67.6,63.0,97,80,54,30.07,29.96,8,2,11,0.00
2013-8-22,80.7,71.7,67.2,71.0,68.0,66.0,97,88,69,30.08,29.97,8,2,14,0.11
2013-8-23,83.7,71.1,61.0,70.0,65.2,60.0,99,84,51,30.11,30.04,8,2,11,0.01
2013-8-24,86.1,71.3,55.9,70.0,63.3,55.0,97,78,52,30.20,30.11,9,2,12,0.00
2013-8-25,86.8,73.8,61.6,69.0,63.7,58.0,93,73,49,30.23,30.13,8,2,12,0.00
2013-8-26,88.7,76.8,64.4,75.0,69.9,62.0,96,80,55,30.15,29.98,7,3,12,0.00
2013-8-27,90.0,79.4,71.3,76.0,71.9,68.0,94,79,58,29.99,29.87,10,5,18,0.00
2013-8-28,93.7,80.1,70.7,78.0,71.2,65.0,94,75,59,29.96,29.85,12,4,16,0.00
2013-8-29,86.1,74.0,66.6,74.0,69.7,65.0,99,88,57,30.02,29.93,7,2,10,0.00
2013-8-30,93.8,78.8,64.4,79.0,70.8,61.0,98,78,51,29.93,29.74,9,3,16,0.00
2013-8-31,93.5,76.7,64.6,80.0,69.6,61.0,96,79,61,29.78,29.66,10,2,13,0.01
2013-9-1,84.4,74.7,68.3,75.0,70.3,67.0,98,87,66,29.77,29.70,7,2,8,0.00
2013-9-2,84.0,70.5,55.6,67.0,62.0,55.0,97,77,49,29.93,29.76,5,1,11,0.00
2013-9-3,77.2,62.9,51.0,62.0,56.2,51.0,99,82,51,30.06,29.93,7,0,7,0.00
2013-9-4,83.5,66.5,53.5,63.0,57.5,52.0,96,76,43,30.12,30.03,9,2,9,0.01
2013-9-5,87.4,71.7,58.2,68.0,62.0,56.0,94,74,49,30.16,30.09,7,1,9,0.00
2013-9-6,87.2,71.4,56.7,68.0,61.8,54.0,94,74,51,30.16,29.99,6,1,11,0.00
2013-9-7,87.7,73.2,62.4,68.0,64.4,61.0,95,76,46,30.00,29.87,11,3,17,0.00
2013-9-8,88.7,77.0,69.0,71.0,68.6,67.0,93,77,53,29.93,29.85,7,2,9,0.00
2013-9-9,94.7,79.7,68.0,75.0,71.4,67.0,96,78,50,29.89,29.80,12,4,15,0.00
2013-9-10,94.7,81.0,68.5,71.0,68.1,66.0,92,68,39,30.00,29.88,14,4,20,0.00
2013-9-11,93.6,80.7,68.4,70.0,67.3,62.0,93,67,36,30.02,29.94,13,4,19,0.00
2013-9-12,84.9,72.1,56.5,71.0,61.6,48.0,97,74,31,30.02,29.91,14,3,18,0.09
2013-9-13,72.7,58.9,42.5,52.0,47.7,40.0,98,70,39,30.13,30.01,7,1,11,0.00
2013-9-14,73.3,55.6,39.1,49.0,42.9,38.0,97,67,33,30.16,30.03,6,1,17,0.00
2013-9-15,72.2,60.8,50.3,61.0,53.0,45.0,96,77,50,30.10,29.94,9,3,17,0.10
2013-9-16,71.6,60.1,47.7,58.0,52.7,46.0,98,79,50,30.28,30.10,11,2,17,0.00
2013-9-17,75.2,58.9,43.7,56.0,49.8,43.0,98,75,48,30.28,30.08,8,2,11,0.00
2013-9-18,85.1,71.9,63.0,69.0,62.3,54.0,90,72,55,30.07,29.90,11,4,17,0.00
2013-9-19,92.2,80.0,70.1,72.0,69.7,68.0,94,73,47,29.93,29.76,14,7,20,0.00
2013-9-20,78.0,66.7,53.3,72.0,62.7,51.0,97,87,62,29.83,29.77,17,4,36,0.22
2013-9-21,71.0,57.2,44.5,56.0,49.2,43.0,97,78,44,29.91,29.81,5,1,13,0.01
2013-9-22,72.9,55.3,36.4,51.0,45.3,36.0,99,74,39,30.02,29.92,5,1,11,0.00
2013-9-23,75.7,57.8,39.9,50.0,45.3,39.0,97,68,33,30.05,29.96,9,2,12,0.00
2013-9-24,77.7,60.7,43.2,56.0,50.3,42.0,96,72,40,29.98,29.84,11,3,13,0.00
2013-9-25,81.0,63.2,47.8,59.0,52.6,46.0,94,71,44,29.90,29.83,11,2,12,0.00
2013-9-26,83.2,63.9,46.3,57.0,49.2,43.0,97,65,28,30.03,29.90,9,2,10,0.00
2013-9-27,83.4,66.5,48.3,56.0,50.3,45.0,92,61,29,30.11,30.00,10,3,13,0.00
2013-9-28,84.4,71.1,55.8,61.0,57.0,52.0,90,64,39,30.04,29.88,17,6,22,0.00
2013-9-29,72.0,60.4,48.0,65.0,51.5,44.0,98,76,39,30.02,29.91,6,1,13,0.30
2013-9-30,78.0,60.4,44.3,60.0,52.4,43.0,97,78,42,29.98,29.85,10,2,13,0.00
2013-10-1,79.8,68.2,61.0,66.0,63.8,60.0,97,87,61,29.97,29.89,13,5,15,0.00
2013-10-2,81.2,70.1,64.5,68.0,66.2,64.0,99,89,62,30.04,29.93,9,3,11,0.01
2013-10-3,84.5,69.6,63.9,71.0,66.7,63.0,98,91,57,29.93,29.80,20,5,29,1.68
2013-10-4,87.2,74.4,64.4,71.0,67.0,62.0,96,79,50,29.94,29.86,10,4,14,0.00
2013-10-5,79.4,71.4,58.7,72.0,67.9,55.0,98,89,66,29.90,29.74,13,4,18,0.04
2013-10-6,60.5,52.4,45.5,56.0,45.5,39.0,95,79,49,29.79,29.71,17,7,23,0.06
2013-10-7,68.2,53.4,41.7,50.0,45.9,41.0,98,79,47,30.08,29.78,13,4,16,0.00
2013-10-8,77.1,61.3,46.7,51.0,47.2,44.0,92,64,34,30.18,30.08,6,2,20,0.00
2013-10-9,74.6,58.8,42.4,50.0,45.4,40.0,94,65,32,30.19,30.08,9,2,10,0.00
2013-10-10,77.7,63.6,51.7,59.0,53.2,46.0,89,71,45,30.13,30.00,7,2,10,0.00
2013-10-11,79.5,66.9,58.8,61.0,56.0,54.0,84,70,45,30.02,29.89,12,4,16,0.00
2013-10-12,73.8,61.6,45.4,64.0,55.2,40.0,90,80,64,30.17,29.92,11,4,14,0.00
2013-10-13,68.8,51.2,37.4,46.0,37.4,32.0,93,65,26,30.37,30.18,7,1,8,0.00
2013-10-14,67.5,50.1,32.4,46.0,37.5,30.0,98,67,25,30.37,30.09,10,2,14,0.00
2013-10-15,65.2,59.0,50.0,63.0,53.9,44.0,96,83,64,30.08,29.79,13,7,17,0.13
2013-10-16,56.0,49.0,40.2,47.0,43.8,39.0,95,82,67,29.96,29.88,13,5,18,0.00
2013-10-17,58.7,49.3,43.3,48.0,43.3,39.0,96,81,50,29.95,29.84,13,4,17,0.08
2013-10-18,52.7,45.4,39.1,43.0,40.5,38.0,95,83,63,29.99,29.86,11,4,16,0.00
2013-10-19,54.9,46.4,39.0,42.0,38.9,35.0,97,77,50,29.96,29.84,22,7,22,0.14
2013-10-20,69.4,53.0,38.8,45.0,41.3,36.0,90,67,38,29.88,29.74,16,8,22,0.00
2013-10-21,53.9,44.8,27.2,46.0,35.7,23.0,87,71,46,30.01,29.82,10,4,19,0.00
2013-10-22,45.1,35.4,26.3,40.0,32.3,23.0,98,89,66,30.01,29.84,8,2,13,0.52
2013-10-23,43.7,37.5,31.8,37.0,33.3,30.0,98,86,59,30.07,29.93,10,2,15,0.00
2013-10-24,40.8,36.5,27.1,35.0,29.6,24.0,95,77,58,30.34,30.06,9,4,16,0.01
2013-10-25,51.4,36.9,22.5,33.0,27.6,20.0,92,72,39,30.45,30.15,15,7,21,0.00
2013-10-26,57.2,43.5,30.9,39.0,32.4,27.0,88,66,41,30.14,29.92,24,9,28,0.00
2013-10-27,55.4,40.0,27.4,37.0,30.1,25.0,92,71,40,30.10,30.00,13,4,20,0.00
2013-10-28,61.2,45.1,32.0,40.0,33.6,28.0,94,68,35,30.30,30.06,7,2,9,0.00
2013-10-29,56.2,44.5,31.6,50.0,41.0,31.0,98,88,60,30.30,30.11,8,3,10,0.02
2013-10-30,64.6,57.7,50.6,64.0,57.3,50.0,100,98,95,30.11,29.79,22,8,30,1.74
2013-10-31,63.7,57.9,45.3,63.0,57.3,43.0,99,98,92,29.77,29.24,28,12,32,0.79
2013-11-1,50.2,46.4,41.3,46.0,44.0,40.0,96,91,78,29.77,29.47,15,8,22,0.00
2013-11-2,50.8,41.2,32.5,42.0,37.8,31.0,98,88,63,30.15,29.76,6,2,12,0.00
2013-11-3,52.4,40.4,28.2,41.0,34.8,28.0,99,82,55,30.30,30.14,11,4,14,0.01
2013-11-4,56.7,48.8,42.2,46.0,41.7,36.0,82,77,64,30.22,30.10,19,11,25,0.00
2013-11-5,55.5,52.4,50.4,52.0,49.0,45.0,97,88,82,30.25,29.95,19,10,23,0.08
2013-11-6,56.0,46.7,32.4,55.0,45.4,31.0,98,95,85,30.19,29.82,22,10,33,0.45
2013-11-7,47.0,35.1,28.0,39.0,31.7,27.0,94,88,64,30.30,30.19,16,5,19,0.01
2013-11-8,48.5,39.2,27.8,37.0,32.3,26.0,95,77,56,30.35,30.03,20,7,30,0.00
2013-11-9,61.2,48.9,40.0,45.0,39.1,36.0,85,70,46,30.16,29.94,25,13,31,0.00
2013-11-10,48.5,38.9,30.8,36.0,32.5,29.0,91,79,54,30.38,30.16,10,3,11,0.00
2013-11-11,51.4,39.3,23.6,41.0,34.3,21.0,97,83,66,30.49,30.11,15,5,19,0.03
2013-11-12,30.7,22.2,16.3,24.0,18.4,14.0,91,85,72,30.73,30.50,6,2,9,0.05
2013-11-13,37.5,27.0,13.3,28.0,20.6,11.0,92,78,63,30.67,30.25,21,9,27,0.01
2013-11-14,50.4,38.2,28.0,32.0,27.6,22.0,80,67,47,30.25,30.00,23,14,26,0.00
2013-11-15,50.1,42.0,35.6,41.0,35.1,29.0,92,77,65,30.02,29.93,16,9,20,0.00
2013-11-16,60.7,53.3,42.1,58.0,51.2,40.0,98,92,80,29.93,29.59,25,16,32,0.10
2013-11-17,69.9,64.0,59.1,65.0,61.9,58.0,97,92,84,29.57,29.22,29,17,40,0.02
2013-11-18,47.7,39.1,28.0,38.0,32.8,26.0,92,79,59,30.26,29.91,22,6,28,0.00
2013-11-19,42.6,32.1,21.6,33.0,27.9,20.0,96,85,67,30.37,30.26,10,3,13,0.00
2013-11-20,43.1,36.6,29.4,39.0,32.5,27.0,91,85,75,30.27,30.05,20,8,22,0.17
2013-11-21,48.3,45.9,43.0,47.0,43.9,39.0,99,92,85,30.19,30.09,13,5,15,0.29
2013-11-22,44.5,36.3,27.7,44.0,34.8,26.0,99,94,84,30.50,30.17,6,2,11,0.05
2013-11-23,27.5,21.6,13.1,26.0,16.7,9.0,95,81,64,30.73,30.47,8,3,16,0.00
2013-11-24,27.1,17.3,7.8,16.0,10.4,5.0,90,75,43,30.78,30.45,11,2,14,0.00
2013-11-25,31.0,27.6,20.9,26.0,21.1,14.0,87,76,69,30.43,30.14,18,11,22,0.00
2013-11-26,34.7,26.9,16.5,29.0,21.4,9.0,91,80,67,30.19,30.04,8,4,16,0.00
2013-11-27,27.8,17.8,11.4,14.0,10.1,6.0,86,73,52,30.31,30.18,11,3,14,0.00
2013-11-28,36.6,25.5,16.2,22.0,17.0,13.0,89,71,53,30.52,30.22,17,7,21,0.00
2013-11-29,37.3,25.1,11.0,24.0,18.6,9.0,94,78,56,30.64,30.41,12,4,14,0.00
2013-11-30,50.8,37.5,28.3,34.0,29.2,24.0,86,73,53,30.40,30.08,15,9,20,0.00
2013-12-1,48.6,35.9,25.7,36.0,30.7,25.0,97,83,56,30.11,29.96,7,1,7,0.00
2013-12-2,43.7,35.6,26.7,38.0,33.4,26.0,97,92,79,29.95,29.70,13,5,13,0.00
2013-12-3,49.2,44.7,38.8,49.0,44.3,38.0,99,98,94,29.71,29.64,13,8,17,0.00
2013-12-4,57.0,49.9,39.0,55.0,49.1,36.0,100,97,88,29.74,29.48,18,8,24,0.01
2013-12-5,37.4,25.6,19.7,34.0,20.8,13.0,92,82,74,30.28,29.75,20,6,24,0.00
2013-12-6,19.7,16.7,9.5,14.0,11.5,6.0,87,80,73,30.59,30.26,4,2,10,0.00
2013-12-7,22.3,11.7,3.6,10.0,5.7,1.0,89,77,53,30.73,30.57,4,1,8,0.00
2013-12-8,25.3,20.8,9.8,24.0,18.4,7.0,96,90,85,30.57,30.01,18,9,19,0.00
2013-12-9,24.3,17.5,5.3,23.0,13.1,0.0,94,82,71,30.28,30.01,18,8,24,0.00
2013-12-10,25.1,12.8,-2.3,16.0,6.8,-6.0,87,77,59,30.35,30.13,24,8,32,0.00
2013-12-11,21.9,14.7,0.3,18.0,9.6,-5.0,87,80,67,30.64,30.29,5,2,13,0.00
2013-12-12,29.2,11.7,-4.3,19.0,6.0,-8.0,87,78,64,30.63,30.26,19,7,24,0.00
2013-12-13,38.0,27.6,17.9,30.0,22.8,13.0,97,83,63,30.26,30.04,13,7,18,0.00
2013-12-14,31.6,28.6,19.0,31.0,27.8,17.0,99,96,92,30.05,29.86,9,4,15,0.02
2013-12-15,20.1,15.2,9.3,18.0,12.3,7.0,93,88,82,30.14,30.03,16,7,19,0.00
2013-12-16,20.6,16.6,12.8,20.0,14.9,11.0,96,92,89,30.15,30.04,11,4,12,0.00
2013-12-17,29.3,22.7,18.7,26.0,20.3,15.0,97,90,78,30.19,30.06,16,8,22,0.00
2013-12-18,37.1,23.4,6.1,34.0,18.7,3.0,90,82,70,30.23,29.90,25,12,30,0.27
2013-12-19,43.8,38.9,35.4,43.0,37.2,33.0,97,93,88,29.92,29.76,19,11,22,0.00
2013-12-20,48.8,40.8,30.9,49.0,40.6,31.0,99,99,97,29.82,29.68,13,4,17,0.15
2013-12-21,32.6,30.9,29.6,32.0,30.7,29.0,99,99,98,29.84,29.52,8,1,11,0.00
2013-12-22,32.9,30.1,23.6,33.0,29.4,22.0,99,97,92,30.18,29.56,9,3,16,0.00
2013-12-23,23.6,14.9,2.9,22.0,11.8,-1.0,94,87,80,30.53,30.18,16,9,22,0.00
2013-12-24,18.8,9.7,0.6,15.0,5.5,-3.0,86,83,79,30.63,30.39,14,5,19,0.00
2013-12-25,28.8,25.0,19.1,27.0,22.2,14.0,94,89,81,30.39,30.18,17,11,23,0.01
2013-12-26,36.4,28.2,14.8,30.0,24.1,12.0,94,84,74,30.36,30.20,16,8,20,0.00
2013-12-27,44.8,34.8,24.0,37.0,30.8,22.0,94,85,70,30.32,30.16,16,8,20,0.00
2013-12-28,50.9,39.9,33.0,41.0,34.2,30.0,90,80,66,30.15,29.86,16,11,21,0.00
2013-12-29,36.7,26.8,10.9,32.0,24.6,8.0,97,91,82,30.22,29.80,14,5,15,0.00
2013-12-30,16.0,10.1,1.6,13.0,5.9,-1.0,88,83,71,30.37,30.23,8,3,10,0.00
2013-12-31,25.3,17.1,10.1,20.0,13.3,8.0,90,85,74,30.43,30.23,13,5,14,0.00
2014-1-1,23.5,19.6,16.7,21.0,17.4,15.0,93,91,88,30.25,30.12,15,8,16,0.00
2014-1-2,17.7,11.2,-1.9,15.0,8.7,-5.0,93,89,86,30.46,30.10,14,3,14,0.00